#timestamp,LO_Frequency,Hit 
1502809215.7,286046999.1,N
1502809235.5,286046998.0,N
1502809255.3,286046994.9,N
1502809275.2,286046997.4,N
1502809295.9,286046997.8,N
1502809315.7,286046996.7,N
1502809335.5,286046995.3,N
1502809355.4,286046995.5,N
1502809375.2,286046997.9,N
1502809395.0,286046997.5,N
1502809395.9,286046997.5,N
1502809415.8,286046995.8,N
1502809435.6,286046993.4,Y
1502809455.4,286046999.5,N
1502809475.3,286046996.6,N
1502809495.1,286046996.8,N
1502809515.8,286046997.1,N
1502809535.7,286046997.1,N
1502809555.5,286046996.6,N
1502809575.3,286046998.0,N
1502809595.2,286046995.0,N
1502809615.9,286046995.5,N
1502809635.7,286046995.5,N
1502809655.5,286046997.9,N
1502809675.4,286046993.6,Y
1502809695.2,286046998.7,N
1502809715.0,286046999.2,N
1502809716.0,286046999.2,N
1502809735.8,286046999.2,N
1502809755.6,286046997.0,N
1502809775.4,286046998.2,N
1502809795.3,286046998.6,N
1502809815.1,286046999.0,N
1502809835.8,286046997.0,N
1502809855.7,286046999.5,N
1502809875.5,286046996.6,N
1502809895.3,286046997.1,N
1502809915.2,286046997.8,N
1502809935.9,286046997.5,N
1502809955.7,286046996.7,N
1502809975.6,286046995.0,Y
1502809995.4,286046996.8,N
1502810015.2,286046998.5,N
1502810035.1,286046998.5,N
1502810036.0,286046998.5,N
1502810055.8,286046999.9,N
1502810075.6,286047000.4,N
1502810095.4,286047001.2,N
1502810115.3,286047000.0,N
1502810135.1,286046998.3,N
1502810155.8,286047000.5,N
1502810175.7,286047000.3,N
1502810195.5,286046998.6,N
1502810215.3,286047000.4,N
1502810235.2,286047002.7,N
1502810255.9,286047000.0,N
1502810275.7,286047000.2,N
1502810295.6,286047000.0,N
1502810315.4,286047000.8,N
1502810335.2,286046998.1,N
1502810355.0,286046999.4,N
1502810355.9,286046999.4,N
1502810375.8,286046999.3,N
1502810395.6,286047000.8,N
1502810415.4,286046998.8,N
1502810435.3,286046999.4,N
1502810455.1,286046999.0,N
1502810456.0,286046999.0,N
1502810475.8,286046999.5,N
1502810495.7,286046998.3,N
1502810515.5,286046998.6,N
1502810535.3,286046999.3,N
1502810555.2,286046999.1,N
1502810575.9,286047000.8,N
1502810595.7,286047000.8,N
1502810615.5,286047002.4,N
1502810635.4,286047001.5,N
1502810655.2,286047001.5,N
1502810675.0,286047001.7,N
1502810675.9,286047001.7,N
1502810695.8,286047002.3,N
1502810715.6,286047002.3,N
1502810735.4,286047000.1,N
1502810755.3,286047001.7,N
1502810775.1,286047001.8,N
1502810776.0,286047001.8,N
1502810795.8,286046999.8,N
1502810815.7,286047001.0,N
1502810835.5,286047001.9,N
1502810855.3,286047000.3,N
1502810875.1,286046999.7,N
1502810895.9,286047002.7,N
1502810915.7,286047002.2,N
1502810935.5,286047002.3,N
1502810955.4,286047000.3,N
1502810975.2,286047000.8,N
1502810995.0,286047001.2,N
1502810995.9,286047001.2,N
1502811015.8,286047001.1,N
1502811035.6,286047001.2,N
1502811055.4,286046999.1,N
1502811075.3,286046998.7,N
1502811095.1,286046998.8,N
1502811096.0,286046998.8,N
1502811115.8,286046997.6,N
1502811135.6,286046996.5,N
1502811155.5,286046998.3,N
1502811175.3,286046999.5,N
1502811195.1,286046998.8,N
1502811215.9,286046998.6,N
1502811235.7,286046998.1,N
1502811255.5,286047000.3,N
1502811275.4,286047001.1,N
1502811295.2,286047000.1,N
1502811315.0,286047000.8,N
1502811315.9,286047000.8,N
1502811335.8,286047002.7,N
1502811355.6,286047002.2,N
1502811375.4,286047001.5,N
1502811395.2,286047001.5,N
1502811415.1,286047001.9,N
1502811416.0,286047001.9,N
1502811435.8,286047002.1,N
1502811455.6,286046999.8,N
1502811475.5,286046999.7,N
1502811495.3,286047002.5,N
1502811515.1,286047000.4,N
1502811535.9,286046999.3,N
1502811555.7,286046999.3,N
1502811575.5,286046999.6,N
1502811595.4,286046997.1,N
1502811615.2,286046997.7,N
1502811635.0,286046995.7,N
1502811635.9,286046995.7,N
1502811655.7,286046997.4,N
1502811675.6,286046997.1,N
1502811695.4,286046997.7,N
1502811715.2,286046997.3,N
1502811735.1,286046997.7,N
1502811736.0,286046997.7,N
1502811755.8,286046997.4,N
1502811775.6,286046999.6,N
1502811795.5,286046999.5,N
1502811815.3,286046998.1,N
1502811835.1,286046999.9,N
1502811855.9,286047000.2,N
1502811875.7,286047002.6,N
1502811895.5,286047002.7,N
1502811915.3,286047002.2,N
1502811935.2,286047001.7,N
1502811955.0,286046999.8,N
1502811955.9,286046999.8,N
1502811975.7,286047002.4,N
1502811995.6,286047000.9,N
1502812015.4,286046999.8,N
1502812035.2,286047001.2,N
1502812055.1,286047001.2,N
1502812056.0,286047001.2,N
1502812075.8,286047001.1,N
1502812095.6,286046998.1,N
1502812115.5,286046999.3,N
1502812135.3,286046999.4,N
1502812155.1,286046996.9,N
1502812175.8,286046998.6,N
1502812195.7,286047000.7,N
1502812215.5,286047000.7,N
1502812235.3,286047002.8,N
1502812255.2,286046998.2,N
1502812275.9,286047002.3,N
1502812295.7,286047001.0,N
1502812315.6,286047002.8,N
1502812335.4,286047000.5,N
1502812355.2,286047000.5,N
1502812375.1,286047000.3,N
1502812376.0,286047000.3,N
1502812395.8,286047002.3,N
1502812415.6,286047002.4,N
1502812435.4,286046998.5,N
1502812455.3,286047000.3,N
1502812475.1,286047000.7,N
1502812495.8,286047000.7,N
1502812515.7,286047001.0,N
1502812535.5,286047002.4,N
1502812555.3,286047000.6,N
1502812575.2,286046998.1,N
1502812595.9,286046998.8,N
1502812615.7,286046998.4,N
1502812635.6,286047000.7,N
1502812655.4,286046999.3,N
1502812675.2,286046999.5,N
1502812695.0,286046997.8,N
1502812695.9,286046997.8,N
1502812715.8,286046999.3,N
1502812735.6,286046996.7,N
1502812755.4,286046999.5,N
1502812775.3,286046999.6,N
1502812795.1,286046999.3,N
1502812796.0,286046999.3,N
